Terminal Aerodrome Forecast
Issued by NWS Amarillo, TX

Home | Current Version | Previous Version | Text Only | Print | Product List | Glossary On
Versions: 1 2 3 4 5 6 7 8 9 10 11 12 13 14 15 16 17 18 19 20 21
000
FTUS44 KAMA 012322
TAFDHT
TAF
KDHT 012322Z 0200/0224 36018KT P6SM OVC025
      TEMPO 0200/0204 OVC035
     FM020900 32006KT P6SM SCT050=

USA.gov is the U.S. government's official web portal to all federal, state and local government web resources and services.